Regional Weather Roundup
Issued by NWS

Home | Current Version | Previous Version | Text Only | Print | Product List | Glossary Off
Versions: 1 2 3 4 5 6 7 8 9 10 11 12 13 14 15 16 17 18 19 20 21 22 23 24 25 26 27 28 29 30 31 32 33 34 35 36 37 38 39 40 41 42 43 44 45 46 47 48 49 50

000
ASUS43 KLMK 271010
RWRKY
KENTUCKY REGIONAL WEATHER ROUNDUP
NATIONAL WEATHER SERVICE LOUISVILLE KY
600 AM EDT FRI MAY 27 2016

NOTE "FAIR" INDICATES FEW OR NO CLOUDS BELOW 12,000 FEET
WITH NO SIGNIFICANT WEATHER AND/OR OBSTRUCTIONS TO VISIBILITY.

KYZ001>023-026-027-061>063-070>075-271100-
WESTERN AND SOUTH CENTRAL KENTUCKY

CITY           SKY/WX    TMP DP  RH WIND       PRES   REMARKS
PADUCAH        CLOUDY    67  63  87 SE5       29.92S
HENDERSON      CLOUDY    66  61  82 E9        29.93F
OWENSBORO      CLOUDY    67  67 100 CALM      29.99R
HOPKINSVILLE   CLOUDY    66  66  98 SE8       29.97S
BOWLING GREEN  FOG       62  61  96 CALM      30.02S VSB 1/2
GLASGOW        MOCLDY    63  63 100 CALM      30.03R
$$

KYZ024-025-028>034-038-045-046-053-271100-
NORTH CENTRAL KENTUCKY

CITY           SKY/WX    TMP DP  RH WIND       PRES   REMARKS
LOUISVILLE/SDF CLOUDY    65  62  90 SE6       30.01S
LOUISVILLE/LOU CLOUDY    64  62  93 CALM      30.03R
FORT KNOX      PTCLDY    62  62 100 E3        30.01R
$$

KYZ035>037-039>044-047>052-055>060-089>105-271100-
NORTHEAST KENTUCKY

CITY           SKY/WX    TMP DP  RH WIND       PRES   REMARKS
LEXINGTON      PTCLDY    63  60  90 CALM      30.05R
COVINGTON      CLOUDY    61  61 100 CALM      30.03S
FRANKFORT      CLOUDY    64  61  90 E3        30.03S
$$

KYZ054-064>069-076>088-106>120-271100-
SOUTHEAST KENTUCKY

CITY           SKY/WX    TMP DP  RH WIND       PRES   REMARKS
JACKSON        MOCLDY    67  61  81 S3        30.09R
LONDON         CLEAR     61  59  93 CALM      30.08R
SOMERSET       FOG       59  59 100 CALM      30.09R VSB 3/4
MIDDLESBORO    CLEAR     59  59 100 CALM      30.12R
MONTICELLO     SUNNY     63  61  93 W12       30.09R
$$





USA.gov is the U.S. government's official web portal to all federal, state and local government web resources and services.